Regional Weather Roundup
Issued by NWS

Home | Current Version | Previous Version | Text Only | Print | Product List | Glossary Off
Versions: 1 2 3 4 5 6 7 8 9 10 11 12 13 14 15 16 17 18 19 20 21 22 23 24 25 26 27 28 29 30 31 32 33 34 35 36 37 38 39 40 41 42 43 44 45 46 47 48 49 50

897
ASUS43 KOAX 220702
RWRNE

WEATHER ROUNDUP FOR NEBRASKA
NATIONAL WEATHER SERVICE OMAHA NE
200 AM CDT SAT JUL 22 2017

NOTES: SATELLITE DATA IS BEING USED TO AUGMENT CLOUD COVER ABOVE
       12000 FEET.
       "FAIR" INDICATES FEW OR NO CLOUDS BELOW 12,000 FEET WITH NO
       SIGNIFICANT WEATHER AND/OR OBSTRUCTIONS TO VISIBILITY.


NEZ001>004-019>022-054>056-220800-
NEBRASKA PANHANDLE

CITY           SKY/WX    TMP DP  RH WIND       PRES   REMARKS
SCOTTSBLUFF    CLOUDY    73  54  51 SE5       30.08R
ALLIANCE       CLOUDY    68  56  65 SW6       30.05R
CHADRON        CLOUDY    69  51  52 CALM      30.00R
GORDON         FAIR      68  62  80 CALM      30.01R
KIMBALL        CLOUDY    70  55  58 S16       30.19R
SIDNEY         CLOUDY    69  57  65 SW32G41   30.11F
$$

NEZ057>060-069>072-079>082-220800-
SOUTHWEST NEBRASKA

CITY           SKY/WX    TMP DP  RH WIND       PRES   REMARKS
NORTH PLATTE   CLOUDY    81  57  43 W17       29.94R
IMPERIAL       MOCLDY    72  58  61 NW16      29.98F
LEXINGTON      PTCLDY    78  70  76 SW5       29.85R
MCCOOK         CLOUDY    80  60  50 W9        29.89R
OGALLALA       CLOUDY    77  58  50 W18G28    30.02F
$$

NEZ005>010-023>029-035>040-094-220800-
NORTH CENTRAL NEBRASKA

CITY           SKY/WX    TMP DP  RH WIND       PRES   REMARKS
VALENTINE      CLEAR     74  54  49 NW7       29.92R
AINSWORTH      PTCLDY    75  67  75 NW6       29.92R
BROKEN BOW     CLOUDY    71  67  87 NE3       29.87R
O`NEILL        CLEAR     72  69  91 W5        29.85R
ORD            CLOUDY    71  67  87 N3        29.83R
THEDFORD       CLOUDY    75  70  85 NW6       29.95R
$$

NEZ041-046>049-061>064-073>077-083>087-220800-
SOUTH CENTRAL NEBRASKA

CITY           SKY/WX    TMP DP  RH WIND       PRES   REMARKS
GRAND ISLAND   CLOUDY    74  71  91 NW7       29.81R
AURORA         CLOUDY    75  73  92 NW7       29.79R
HASTINGS       CLOUDY    79  74  84 W3        29.81S
HEBRON         CLEAR     81  64  54 SW7       29.78S
HOLDREGE       CLOUDY    77  65  65 CALM      29.83S
KEARNEY        CLOUDY    76  72  87 CALM      29.83
YORK           PTCLDY    75  75 100 NW5       29.77S
$$

NEZ011>018-030>034-042>045-220800-
NORTHEAST NEBRASKA

CITY           SKY/WX    TMP DP  RH WIND       PRES   REMARKS
NORFOLK        PTCLDY    74  67  78 W5        29.78R
ALBION         PTCLDY    71  69  93 NW5       29.81R
BLAIR          CLOUDY    84  72  67 SW5       29.74R
COLUMBUS       CLOUDY    74  70  87 CALM      29.78R
FREMONT        CLOUDY    81  78  91 CALM      29.74R
TEKAMAH        CLOUDY    80  78  94 N12       29.72R
WAYNE          CLOUDY    79  78  98 NE7       29.78R FOG
$$

NEZ050>053-065>068-078-088>093-220800-
SOUTHEAST NEBRASKA

CITY           SKY/WX    TMP DP  RH WIND       PRES   REMARKS
LINCOLN        CLEAR     79  67  66 S12       29.74S
OMAHA EPPLEY   CLOUDY    85  69  58 SE8       29.72R
BEATRICE       CLEAR     85  68  57 S13       29.76S
NEBRASKA CITY  PTCLDY    84  70  61 SW14      29.74S
PLATTSMOUTH    CLEAR     80  68  67 SW7       29.73F
$$

NEZ044-045-051>053-067-220800-
OMAHA AREA

CITY           SKY/WX    TMP DP  RH WIND       PRES   REMARKS
OMAHA EPPLEY   CLOUDY    85  69  58 SE8       29.72R
BLAIR          CLOUDY    84  72  67 SW5       29.74R
FREMONT        CLOUDY    81  78  91 CALM      29.74R
MILLARD        CLOUDY    87  70  56 SW3       29.73R HX  92
OFFUTT AFB     CLEAR     78  69  75 CALM      29.72S
PLATTSMOUTH    CLEAR     80  68  67 SW7       29.73F
WAHOO          FAIR      78  76  94 W3        29.73R
$$




USA.gov is the U.S. government's official web portal to all federal, state and local government web resources and services.